カタログに戻る

STARLINK-3208

運用中通信VLEO
NORAD 49769·PAYLOAD·🇺🇸 United States

打ち上げ Dec 2, 2021 から Cape Canaveral Space Force Station

Loading…

次のパス (今後24時間)

TLE

最新Source: CelesTrak SupGP

元期: Sep 15, 2026, 00:56 UTC

1 49769C 21115AX  26258.03937500  .00002087  00000+0  67112-4 0  2580
2 49769  53.1609 359.2193 0001025  89.4243 351.4919 15.31695204    10

AllMySatでSTARLINK-3208をリアルタイム追跡

Download on the App Store